Regional Weather Roundup
Issued by NWS

Home | Current Version | Previous Version | Text Only | Print | Product List | Glossary Off
Versions: 1 2 3 4 5 6 7 8 9 10 11 12 13 14 15 16 17 18 19 20 21 22 23 24 25 26 27 28 29 30 31 32 33 34 35 36 37 38 39 40 41 42 43 44 45 46 47 48 49 50

835
ASUS43 KIND 131959
RWRIN

WEATHER ROUNDUP FOR INDIANA
NATIONAL WEATHER SERVICE INDIANAPOLIS IN
300 PM EST SAT FEB 13 2016

NOTE: "FAIR" INDICATES FEW OR NO CLOUDS BELOW 12,000 FEET WITH NO
SIGNIFICANT WEATHER AND/OR OBSTRUCTIONS TO VISIBILITY.

* - STATION DOES NOT REPORT WEATHER SUCH AS PRECIPITATION OR FOG.

+ - STATION NOT QUALITY CONTROLLED BY THE NATIONAL WEATHER SERVICE.
    USE DATA WITH CAUTION...ESPECIALLY DEWPOINT AND RELATIVE
    HUMIDITY OBSERVATIONS.

INZ001>003-010>013-019-020-132100-
NORTHWEST INDIANA

CITY           SKY/WX    TMP DP  RH WIND       PRES   REMARKS
GARY /AIRPORT/ MOSUNNY   18 -13  25 SW5       30.55F WCI  11
RENSSELAER +   SUNNY     19  -9  27 NW8       30.53F WCI   9

$$

LMZ046-743>745-132100-
SOUTHERN LAKE MICHIGAN

STATION/POSITION TIME  TEMP    WIND        PRES    WAVE
                       AIR SEA DIR/SP/G            HT
                 (UTC) (F)     (DEG/KT/KT) (MB)    (FT)
BURNS HARBOR     1900   12     310/  8/ 13 1035.2F
MICHIGAN CITY    1900   13     280/ 13/ 18   N/A

$$

INZ004-005-014>016-021>024-132100-
NORTH CENTRAL INDIANA

CITY           SKY/WX    TMP DP  RH WIND       PRES   REMARKS
GOSHEN         LGT SNOW  14   7  73 W18       30.48F WCI  -3
SOUTH BEND     CLOUDY    13   5  70 W16       30.50F WCI  -3

$$

INZ006>009-017-018-025>027-132100-
NORTHEAST INDIANA

CITY           SKY/WX    TMP DP  RH WIND       PRES   REMARKS
ANGOLA *+      PTSUNNY   14   7  73 NW9       30.43S WCI   2
FORT WAYNE     CLOUDY    15   4  61 W14       30.49F WCI   0

$$

INZ028-029-035-036-043>045-051>053-132100-
WEST CENTRAL INDIANA

CITY           SKY/WX    TMP DP  RH WIND       PRES   REMARKS
CRAWFORDSVL +  SUNNY     15  -6  39 NW3       30.53F
GREENCASTLE +  SUNNY     19 -11  25 NW6       30.53F WCI  11
LAFAYETTE      SUNNY     18  -5  36 W9        30.55F WCI   7
TERRE HAUTE    SUNNY     19  -2  39 N7        30.56F WCI  10

$$

INZ030>032-037>040-046>048-054>057-064-065-132100-
CENTRAL INDIANA

CITY           SKY/WX    TMP DP  RH WIND       PRES   REMARKS
ANDERSON       SUNNY     18   1  49 NW12G23   30.51F WCI   5
INDIANAPOLIS   MOSUNNY   19  -4  36 NW9       30.51F WCI   8
-EAGLE CREEK   SUNNY     18  -3  39 VRB7      30.51F WCI   9
KOKOMO *+      SUNNY     18   1  49 NW12      30.51F WCI   5
MT COMFORT *+  SUNNY     19  -2  38 NW10      30.51F WCI   8
SHELBYVILLE    SUNNY     20   1  43 W12       30.51F WCI   8

$$

INZ033-034-041-042-049-050-058-059-132100-
EAST CENTRAL INDIANA

CITY           SKY/WX    TMP DP  RH WIND       PRES   REMARKS
MUNCIE         MOSUNNY   16  -1  47 NW10      30.50F WCI   4

$$

INZ060-061-067>069-081>083-085>088-132100-
SOUTHWEST INDIANA

CITY           SKY/WX    TMP DP  RH WIND       PRES   REMARKS
EVANSVILLE     SUNNY     26   1  34 N8        30.57F WCI  18
HUNTINGBURG *+ SUNNY     23   1  39 N8        30.55F WCI  14

$$

INZ062-063-066-070>080-084-089>092-132100-
SOUTH CENTRAL AND SOUTHEAST INDIANA

CITY           SKY/WX    TMP DP  RH WIND       PRES   REMARKS
BLOOMINGTON    SUNNY     21  -1  38 W8        30.51F WCI  11
MADISON *+     SUNNY     23   1  39 NW7       30.53S WCI  15
SEYMOUR +      SUNNY     25   0  33 NW6       30.53F WCI  18

$$





USA.gov is the U.S. government's official web portal to all federal, state and local government web resources and services.